Change the Weather History Date:

Tuesday, November 13, 2012

  Actual Average Record
Temperature  
Mean Temperature -6 °F -  
Max Temperature 12 °F 8 °F 54 °F (1976)
Min Temperature -24 °F -5 °F -29 °F (2006)
Degree Days  
Heating Degree Days 71    
Moisture  
Dew Point -17 °F    
Average Humidity 72    
Maximum Humidity 80    
Minimum Humidity 59    
Precipitation  
Precipitation 0.12 in - - ()
Sea Level Pressure  
Sea Level Pressure 30.12 in    
Wind  
Wind Speed 3 mph (ENE)    
Max Wind Speed 21 mph    
Max Gust Speed 30 mph    
Visibility 10 miles    
Events      
Averages and records for this station are not official NWS values.
T = Trace of Precipitation, MM = Missing Value Source: NWS Daily Summary

Daily Weather History Graph

Daily Weather History Graph

Search for Another Location

Airport or City:

Trip Planner

Search our weather history database for the weather conditions in past years. The results will help you decide how hot, cold, wet, or windy it might be!

Date:

Astronomy

Nov. 13, 2012 Rise Set
Actual Time 9:24 AM AKST 3:55 PM AKST
Civil Twilight 8:23 AM AKST 4:56 PM AKST
Nautical Twilight 7:22 AM AKST 5:57 PM AKST
Astronomical Twilight 6:25 AM AKST 6:54 PM AKST
Moon 9:27 AM AKST (11/13) 3:40 PM AKST (11/13)
Length of Visible Light 8h 33m
Length of Day
6h 31m
Waning Crescent, 0% of the Moon is Illuminated
Nov 13
Waning Crescent
Nov 13
New
Nov 20
First Quarter
Nov 28
Full
Dec 6
Last Quarter

Hourly Weather History & Observations

Time (AKST) Temp. Windchill Dew Point Humidity Pressure Visibility Wind Dir Wind Speed Gust Speed Precip Events Conditions
12:53 AM -18.9 °F - -25.1 °F 74% 30.27 in 10.0 mi Calm Calm - N/A   Clear
1:53 AM -20.0 °F - -26.0 °F 74% 30.27 in 10.0 mi Calm Calm - N/A   Clear
3:53 AM -20.9 °F - -27.0 °F 73% 30.27 in 10.0 mi Calm Calm - N/A   Clear
4:01 AM -20.2 °F - -27.4 °F 69% 30.22 in 10.0 mi Calm Calm - N/A   Partly Cloudy
4:45 AM -22.0 °F - -27.4 °F 76% 30.20 in 10.0 mi Calm Calm - N/A   Mostly Cloudy
4:53 AM -22.0 °F - -27.9 °F 74% 30.27 in 10.0 mi Calm Calm - N/A   Scattered Clouds
5:53 AM -20.9 °F - -26.0 °F 77% 30.28 in 10.0 mi Calm Calm - N/A   Clear
6:11 AM -20.2 °F - -27.4 °F 69% 30.22 in 4.0 mi Calm Calm - N/A   Haze
6:53 AM -20.9 °F - -27.9 °F 70% 30.28 in 10.0 mi Calm Calm - N/A   Clear
7:53 AM -24.0 °F -35.2 °F -29.0 °F 77% 30.29 in 10.0 mi East 3.5 mph - N/A   Clear
8:53 AM -23.1 °F - -27.9 °F 78% 30.27 in 10.0 mi Calm Calm - N/A   Clear
9:53 AM -23.1 °F -34.2 °F -29.9 °F 70% 30.27 in 10.0 mi WNW 3.5 mph - N/A   Clear
10:17 AM -20.2 °F - -27.4 °F 69% 30.21 in 10.0 mi Calm Calm - N/A   Partly Cloudy
10:53 AM -20.9 °F - -27.0 °F 73% 30.26 in 10.0 mi Calm Calm - N/A   Clear
11:53 AM -18.0 °F - -24.0 °F 74% 30.23 in 10.0 mi Calm Calm - N/A   Clear
12:05 PM -18.4 °F - -23.8 °F 76% 30.16 in 10.0 mi Calm Calm - N/A   Partly Cloudy
12:53 PM -15.0 °F -27.4 °F -20.0 °F 78% 30.19 in 10.0 mi NNE 4.6 mph - N/A   Clear
1:53 PM -11.9 °F - -17.0 °F 78% 30.14 in 10.0 mi Calm Calm - N/A   Clear
2:53 PM -9.9 °F - -16.1 °F 74% 30.10 in 10.0 mi Calm Calm - N/A   Clear
3:53 PM 5.0 °F -13.6 °F -0.0 °F 80% 30.03 in 10.0 mi East 16.1 mph - N/A   Clear
4:53 PM 8.1 °F -10.2 °F 1.9 °F 76% 29.99 in 10.0 mi East 17.3 mph 25.3 mph N/A   Clear
5:53 PM 10.0 °F -7.1 °F 1.0 °F 67% 29.96 in 10.0 mi ENE 16.1 mph 29.9 mph N/A   Clear
6:53 PM 10.0 °F -9.1 °F 1.0 °F 67% 29.91 in 10.0 mi East 20.7 mph 29.9 mph N/A   Clear
7:53 PM 10.0 °F -8.1 °F 1.0 °F 67% 29.88 in 10.0 mi East 18.4 mph 28.8 mph N/A   Clear
8:53 PM 10.9 °F -7.9 °F -0.0 °F 61% 29.85 in 10.0 mi East 20.7 mph 28.8 mph N/A   Clear
9:53 PM 12.0 °F -5.6 °F -0.0 °F 59% 29.82 in 10.0 mi East 18.4 mph 28.8 mph N/A   Clear
10:53 PM 12.0 °F -3.4 °F -0.0 °F 59% 29.80 in 10.0 mi East 13.8 mph - N/A   Clear
11:53 PM 9.0 °F -5.1 °F -0.0 °F 67% 29.79 in 10.0 mi East 10.4 mph 17.3 mph N/A   Clear